Location: Hilton Head Island
(32.2163°N, 80.7526°W)
Time: 00:46:42
(UTC-05:00)

Vanguard 1 - Pass Details

Date: 22 February 2026
Orbit: 653 x 3818 km, 34.2° (Epoch: 5 March)

Event Time Altitude Azimuth Distance (km) Brightness Sun altitude
Rises 13:35:44 0° 234° (SW) 3,555 13.5 45.5°
Reaches altitude 10° 13:37:50 10° 230° (SW) 2,829 13.3 45.3°
Maximum altitude 13:44:38 62° 151° (SSE) 1,641 12.3 44.8°
Drops below altitude 10° 13:57:17 10° 75° (ENE) 5,074 13.5 43.6°
Sets 14:02:25 0° 73° (ENE) 6,594 14.0 43.1°
